Location: Unspecified
(35.6961°N, 0.0000°E)
Time: 03:52:14
(UTC+00:00)

Vanguard 2 Rocket - Pass Details

Date: 02 June 2019
Orbit: 554 x 3326 km, 32.9° (Epoch: 17 June)

Event Time Altitude Azimuth Distance (km) Brightness Sun altitude
Rises 10:58:39 0° 277° (W) 5,990 10.9 71.3°
Reaches altitude 10° 11:07:00 10° 249° (WSW) 4,139 10.3 72.5°
Maximum altitude 11:09:42 11° 234° (SW) 3,740 10.2 72.9°
Drops below altitude 10° 11:12:07 10° 219° (SW) 3,558 10.1 73.2°
Sets 11:17:28 0° 185° (S) 3,895 10.3 73.9°
